Change the Weather History Date:

Saturday, December 28, 2013

  Actual Average Record
Temperature  
Mean Temperature 31 °F 22 °F  
Max Temperature 39 °F 29 °F 56 °F (1982)
Min Temperature 23 °F 15 °F -9 °F (1967)
Degree Days  
Heating Degree Days 34 43  
Month to date heating degree days 1310 1107  
Since 1 July heating degree days 3178 2930  
Moisture  
Dew Point 28 °F    
Average Humidity 85    
Maximum Humidity 100    
Minimum Humidity 70    
Precipitation  
Precipitation 0.00 in 0.05 in 2.28 in (1946)
Month to date precipitation 2.13 1.59  
Year to date precipitation 31.60 28.00  
Snow  
Snow 0.00 in 0.60 in 9.10 in (1968)
Month to date snowfall 24.0 17.2  
Since 1 July snowfall 26.6 25.3  
Snow Depth 11.00 in    
Sea Level Pressure  
Sea Level Pressure 29.89 in    
Wind  
Wind Speed 5 mph (South)    
Max Wind Speed 14 mph    
Max Gust Speed 18 mph    
Visibility 6 miles    
Events Fog    
T = Trace of Precipitation, MM = Missing Value Source: NWS Daily Summary

Daily Weather History Graph

Daily Weather History Graph

Search for Another Location

Airport or City:

Trip Planner

Search our weather history database for the weather conditions in past years. The results will help you decide how hot, cold, wet, or windy it might be!

Date:

Astronomy

Dec. 28, 2013 Rise Set
Actual Time 8:12 AM EST 4:59 PM EST
Civil Twilight 7:38 AM EST 5:33 PM EST
Nautical Twilight 7:01 AM EST 6:10 PM EST
Astronomical Twilight 6:25 AM EST 6:46 PM EST
Moon 3:41 AM EST (12/28) 1:55 PM EST (12/28)
Length of Visible Light 9h 55m
Length of Day
8h 47m
Waning Crescent, 19% of the Moon is Illuminated
Dec 28
Waning Crescent
Jan 1
New
Jan 7
First Quarter
Jan 15
Full
Jan 24
Last Quarter

Hourly Weather History & Observations

Time (EST) Temp. Windchill Dew Point Humidity Pressure Visibility Wind Dir Wind Speed Gust Speed Precip Events Conditions
12:04 AM 34.0 °F 26.6 °F 28.9 °F 82% 29.85 in 10.0 mi SW 9.2 mph - N/A   Overcast
12:54 AM 35.1 °F 28.6 °F 28.9 °F 78% 29.89 in 10.0 mi WSW 8.1 mph - N/A   Overcast
1:54 AM 35.1 °F 30.1 °F 28.9 °F 78% 29.90 in 10.0 mi West 5.8 mph - N/A   Overcast
2:54 AM 36.0 °F 31.1 °F 28.9 °F 76% 29.92 in 10.0 mi Variable 5.8 mph - N/A   Overcast
3:54 AM 35.1 °F 29.3 °F 28.9 °F 78% 29.94 in 10.0 mi West 6.9 mph - N/A   Overcast
4:54 AM 34.0 °F 29.8 °F 30.0 °F 85% 29.95 in 10.0 mi WNW 4.6 mph - N/A   Overcast
5:54 AM 34.0 °F 27.2 °F 28.9 °F 82% 29.98 in 10.0 mi WNW 8.1 mph - N/A   Overcast
6:54 AM 34.0 °F 28.8 °F 28.9 °F 82% 29.97 in 10.0 mi WSW 5.8 mph - N/A   Overcast
7:54 AM 34.0 °F 31.0 °F 28.9 °F 82% 30.00 in 10.0 mi SW 3.5 mph - N/A   Overcast
8:54 AM 34.0 °F 31.0 °F 28.9 °F 82% 29.99 in 10.0 mi South 3.5 mph - N/A   Overcast
9:54 AM 35.1 °F 31.0 °F 30.0 °F 82% 30.01 in 10.0 mi SW 4.6 mph - N/A   Overcast
10:54 AM 36.0 °F 28.5 °F 30.0 °F 79% 30.01 in 10.0 mi WSW 10.4 mph - N/A   Overcast
11:54 AM 36.0 °F 30.3 °F 28.9 °F 76% 29.99 in 10.0 mi SW 6.9 mph - N/A   Overcast
12:54 PM 37.0 °F 30.4 °F 28.9 °F 73% 29.94 in 10.0 mi SSW 9.2 mph - N/A   Overcast
1:37 PM 37.0 °F 31.6 °F 28.9 °F 73% 29.90 in 10.0 mi Variable 6.9 mph - N/A   Scattered Clouds
1:54 PM 37.9 °F 34.4 °F 30.0 °F 73% 29.92 in 10.0 mi SSW 4.6 mph - N/A   Clear
2:54 PM 37.0 °F 33.3 °F 30.0 °F 76% 29.89 in 10.0 mi South 4.6 mph - N/A   Clear
3:54 PM 39.0 °F 35.7 °F 30.0 °F 70% 29.88 in 10.0 mi SE 4.6 mph - N/A   Clear
4:54 PM 34.0 °F 29.8 °F 28.9 °F 82% 29.89 in 9.0 mi East 4.6 mph - 0.00 in   Clear
5:54 PM 30.9 °F - 28.9 °F 92% 29.89 in 5.0 mi Calm Calm - N/A   Clear
6:29 PM 28.9 °F 25.2 °F 28.0 °F 96% 29.86 in 2.5 mi SE 3.5 mph - N/A   Clear
6:54 PM 28.9 °F - 28.0 °F 96% 29.89 in 2.0 mi Calm Calm - N/A   Clear
7:12 PM 28.9 °F 25.2 °F 28.0 °F 96% 29.85 in 0.8 mi SSE 3.5 mph - N/A   Clear
7:23 PM 27.0 °F 23.0 °F 27.0 °F 100% 29.84 in 0.2 mi SE 3.5 mph - N/A Fog Light Freezing Fog
7:54 PM 25.0 °F 19.3 °F 24.1 °F 96% 29.85 in 0.2 mi SSE 4.6 mph - N/A Fog Light Freezing Fog
8:13 PM 27.0 °F 21.6 °F 27.0 °F 100% 29.82 in 1.0 mi SSE 4.6 mph - N/A   Clear
8:22 PM 28.0 °F 24.2 °F 26.1 °F 92% 29.81 in 2.5 mi SSE 3.5 mph - N/A   Clear
8:32 PM 26.1 °F 20.5 °F 25.0 °F 96% 29.81 in 0.8 mi SSE 4.6 mph - N/A   Clear
8:42 PM 25.0 °F 20.7 °F 24.1 °F 96% 29.80 in 0.2 mi SSE 3.5 mph - N/A Fog Light Freezing Fog
8:54 PM 24.1 °F 19.7 °F 24.1 °F 100% 29.83 in 0.2 mi SSE 3.5 mph - N/A Fog Light Freezing Fog
9:17 PM 27.0 °F 21.6 °F 26.1 °F 96% 29.80 in 1.0 mi South 4.6 mph - N/A   Clear
9:30 PM 26.1 °F - 25.0 °F 96% 29.81 in 2.0 mi Calm Calm - N/A   Clear
9:34 PM 24.1 °F - 24.1 °F 100% 29.81 in 0.8 mi Calm Calm - N/A   Partly Cloudy
9:54 PM 25.0 °F 19.3 °F 24.1 °F 96% 29.83 in 1.5 mi South 4.6 mph - N/A   Mostly Cloudy
10:24 PM 25.0 °F 19.3 °F 24.1 °F 96% 29.80 in 3.0 mi SSE 4.6 mph - N/A   Mostly Cloudy
10:54 PM 28.9 °F 23.9 °F 27.0 °F 92% 29.81 in 5.0 mi SSE 4.6 mph - N/A   Partly Cloudy
11:54 PM 30.0 °F - 28.9 °F 96% 29.78 in 4.0 mi Calm Calm - N/A   Overcast